Content
SEND FEEDBACK

Daily
Averages
Monthly
Summary
United States of America

MARNE, IOWA


Home > North America > United States > Iowa
Elevation: 1219 feet     Latitude: 41 25N     Longitude: 095 00W

WEATHER
 
SELECT A DAY
Number of Records: 398,996;   Date Range: 4/23/95 - 8/27/14
 
SHARE

PRINT THIS DATA

[ ← Previous Day ]
WEATHER ALMANAC - FEBRUARY 5, 2013
[ Next Day → ]
[ °C ]   °F
Weather ElementAverageHighLow
Temperature33.4 °F46.4 °F (1:35 pm)24.8 °F (12:35 am)
Dewpoint27.6 °F33.8 °F (12:15 pm)23 °F (12:35 am)
Humidity81.3 %100 % (7:15 am)50 % (3:15 pm)
Barometer29.94 in30.09 in (11:35 pm)29.82 in (4:35 am)
Wind Speed9.6 mph21.9 mph (2:15 pm)
Wind Gust28.8 mph (2:15 pm)
Weather ElementAverage
Visibility9.1 mi
Wind DirectionSSW (213.8 °)

Weather ElementTotal
Precipitation---
Heating Degree Days29.4 (Base 65)
Averaged from 69 records on February 5, 2013
WEATHER CONDITIONS BREAKOUT
WIND DIRECTION BREAKOUT
WEATHER BY HOUR - FEBRUARY 5, 2013
[ °C ]   °F
Local TimeTemperatureDewpointHumidityBarometerVisibilityWind DirectionWind SpeedGust SpeedPrecipitationEventsConditions
12:35 AM24.8 °F23.0 °F93 %29.87 in10.0 miSSW (200°)9.2 mphOvercast
12:55 AM24.8 °F23.0 °F93 %29.87 in10.0 miSSW (210°)12.7 mphOvercast
1:15 AM24.8 °F23.0 °F93 %29.87 in10.0 miSSW (210°)10.4 mphOvercast
1:35 AM24.8 °F23.0 °F93 %29.86 in10.0 miSSW (210°)11.5 mphOvercast
1:55 AM26.6 °F23.0 °F86 %29.86 in10.0 miSSW (210°)11.5 mphOvercast
2:15 AM26.6 °F24.8 °F93 %29.86 in10.0 miSSW (210°)10.4 mphOvercast
2:35 AM26.6 °F24.8 °F93 %29.85 in10.0 miSSW (200°)9.2 mphOvercast
2:55 AM26.6 °F24.8 °F93 %29.85 in8.0 miSSW (200°)9.2 mphOvercast
3:15 AM26.6 °F24.8 °F93 %29.83 in8.0 miSSW (210°)10.4 mphOvercast
3:35 AM26.6 °F24.8 °F93 %29.83 in8.0 miSW (220°)10.4 mphOvercast
3:55 AM26.6 °F24.8 °F93 %29.83 in7.0 miSSW (210°)12.7 mphMostly Cloudy
4:15 AM26.6 °F24.8 °F93 %29.83 in7.0 miSSW (210°)11.5 mphClear
4:35 AM26.6 °F24.8 °F93 %29.82 in7.0 miSSW (210°)12.7 mphClear
4:55 AM26.6 °F24.8 °F93 %29.82 in7.0 miSSW (210°)9.2 mphClear
5:15 AM26.6 °F24.8 °F93 %29.82 in7.0 miSSW (210°)9.2 mphClear
5:35 AM26.6 °F24.8 °F93 %29.82 in7.0 miSSW (210°)10.4 mphClear
5:55 AM26.6 °F24.8 °F93 %29.82 in6.0 miSW (220°)10.4 mphScattered Clouds
6:15 AM26.6 °F24.8 °F93 %29.82 in6.0 miSSW (210°)10.4 mphMostly Cloudy
6:55 AM26.6 °F24.8 °F93 %29.83 in7.0 miSW (220°)9.2 mphOvercast
7:15 AM24.8 °F24.8 °F100 %29.84 in6.0 miSW (220°)6.9 mphPartly Cloudy
7:35 AM24.8 °F24.8 °F100 %29.84 in5.0 miSSW (200°)5.8 mphClear
7:55 AM24.8 °F23.0 °F93 %29.84 in5.0 miSW (220°)8.1 mphClear
8:15 AM24.8 °F24.8 °F100 %29.85 in5.0 miCalmClear
8:35 AM26.6 °F24.8 °F93 %29.85 in6.0 miSouth (190°)6.9 mphClear
8:55 AM30.2 °F26.6 °F86 %29.86 in8.0 miSW (230°)8.1 mphClear
9:15 AM32.0 °F28.4 °F87 %29.87 in10.0 miWest (270°)12.7 mphClear
9:35 AM33.8 °F28.4 °F81 %29.88 in10.0 miWest (270°)15.0 mphClear
9:55 AM37.4 °F30.2 °F75 %29.89 in10.0 miWest (280°)11.5 mphClear
10:15 AM39.2 °F30.2 °F70 %29.90 in10.0 miWNW (300°)17.3 mphClear
10:35 AM39.2 °F30.2 °F70 %29.91 in10.0 miWNW (290°)15.0 mphClear
10:55 AM41.0 °F32.0 °F70 %29.92 in10.0 miNW (310°)12.7 mph20.7 mphClear
11:15 AM42.8 °F32.0 °F66 %29.93 in10.0 miNW (320°)17.3 mphClear
11:35 AM42.8 °F32.0 °F66 %29.94 in10.0 miNW (320°)16.1 mph24.2 mphClear
11:55 AM42.8 °F32.0 °F66 %29.94 in10.0 miNW (320°)18.4 mph24.2 mphClear
12:15 PM42.8 °F33.8 °F70 %29.94 in10.0 miWNW (300°)16.1 mphClear
12:35 PM44.6 °F33.8 °F66 %29.94 in10.0 miWNW (300°)16.1 mph21.9 mphClear
12:55 PM44.6 °F33.8 °F66 %29.95 in10.0 miWNW (300°)18.4 mphClear
1:15 PM44.6 °F32.0 °F61 %29.95 in10.0 miNW (310°)15.0 mph21.9 mphClear
1:35 PM46.4 °F32.0 °F57 %29.95 in10.0 miNW (320°)18.4 mphClear
1:55 PM46.4 °F30.2 °F53 %29.95 in10.0 miNNW (330°)18.4 mphClear
2:15 PM46.4 °F30.2 °F53 %29.96 in10.0 miNW (320°)21.9 mph28.8 mphClear
2:35 PM46.4 °F32.0 °F57 %29.96 in10.0 miNW (320°)12.7 mph23.0 mphClear
2:55 PM46.4 °F30.2 °F53 %29.96 in10.0 miNNW (330°)20.7 mphClear
3:15 PM46.4 °F28.4 °F50 %29.96 in10.0 miNNW (330°)17.3 mphClear
3:35 PM44.6 °F28.4 °F53 %29.97 in10.0 miNNW (340°)16.1 mphClear
3:55 PM44.6 °F28.4 °F53 %29.98 in10.0 miNNW (340°)17.3 mphClear
4:15 PM44.6 °F28.4 °F53 %29.99 in10.0 miNNW (340°)13.8 mphClear
4:35 PM42.8 °F30.2 °F61 %29.99 in10.0 miNNW (340°)9.2 mph15.0 mphClear
4:55 PM42.8 °F30.2 °F61 %30.00 in10.0 miNNW (340°)6.9 mphClear
5:15 PM41.0 °F28.4 °F61 %30.00 in10.0 miNNW (340°)8.1 mphClear
5:35 PM39.2 °F28.4 °F65 %30.00 in10.0 miNNW (340°)4.6 mphClear
5:55 PM37.4 °F28.4 °F70 %30.01 in10.0 miNW (320°)5.8 mphClear
6:15 PM33.8 °F28.4 °F81 %30.02 in10.0 miNNW (330°)6.9 mphScattered Clouds
6:35 PM33.8 °F28.4 °F81 %30.02 in10.0 miCalmScattered Clouds
6:55 PM35.6 °F28.4 °F75 %30.03 in10.0 miCalmScattered Clouds
7:15 PM32.0 °F28.4 °F87 %30.04 in10.0 miCalmScattered Clouds
7:35 PM30.2 °F28.4 °F93 %30.04 in10.0 miCalmScattered Clouds
7:55 PM30.2 °F28.4 °F93 %30.05 in10.0 miCalmPartly Cloudy
8:35 PM30.2 °F28.4 °F93 %30.06 in10.0 miCalmClear
8:55 PM28.4 °F28.4 °F100 %30.06 in10.0 miCalmPartly Cloudy
9:15 PM28.4 °F28.4 °F100 %30.07 in10.0 miNorth (360°)4.6 mphPartly Cloudy
9:35 PM28.4 °F26.6 °F93 %30.08 in10.0 miNorth (360°)5.8 mphClear
9:55 PM28.4 °F26.6 °F93 %30.08 in10.0 miNNE (30°)3.5 mphClear
10:15 PM26.6 °F26.6 °F100 %30.07 in10.0 miNNE (20°)4.6 mphClear
10:35 PM28.4 °F26.6 °F93 %30.07 in10.0 miNE (40°)3.5 mphClear
10:55 PM28.4 °F28.4 °F100 %30.08 in10.0 miCalmClear
11:15 PM28.4 °F26.6 °F93 %30.08 in10.0 miNNE (20°)4.6 mphClear
11:35 PM28.4 °F26.6 °F93 %30.09 in10.0 miCalmClear
11:55 PM28.4 °F26.6 °F93 %30.08 in10.0 miCalmClear
Hourly data recorded from KAIO, located miles away from Marne, Iowa







STORIES FROM OUR PARTNERS